CZ-6A DEB

Satellite information

Favourite Embed

Satellite Type and Status

DEBRISIN ORBIT

Key statistics

Satellite CZ-6A DEB at a glance.

Uptime

1086

Days in orbit

Revolutions

≈ 14.3

Per day

Orbit

SSO

Sun Synchronous Orbit

Inclination

98.9

Latest

Satellite identification and parameters

Extended collection of information and parameters for CZ-6A DEB.

Object identification

Identified? True

Debris? True

Object name: CZ-6A DEB

International designator: 2022-151GH

Object number (NORAD): 54457

Object ID (CCSDS): 54457

Country: PEOPLES REPUBLIC OF CHINA (PRC)

Current information (Y/N): Y

RCS size: SMALL

Orbital parameters

Period: 100.507 minutes

Inclination: 98.9034 deg

SMA: 7160.744 km

Apoapsis: 843.328 km

Periapsis: 721.89 km

RAAN: 350.4732 deg

Eccentricy: 0.0084794

Argument of periapsis: 81.0844 deg

Mean anomaly: 279.9926 deg

Mean motion: 14.32733863 rev/day

Mean motion (dot): 0.0000443 rev/day2

B* drag term: 0.0015787 1/REarth

Two-line elements (TLE)

Creation date: Oct. 31, 2025, 6:26 p.m.

Reference frame: TEME

Reference center: EARTH

Epoch: Oct. 31, 2025, 3:47 p.m. UTC

TLE line 0: 0 CZ-6A DEB

TLE line 1: 1 54457U 22151GH 25304.65776769 .00004430 00000-0 15787-2 0 9994

TLE line 2: 2 54457 98.9034 350.4732 0084794 81.0844 279.9926 14.32733863154397

Live tracking on map

Real-time ground track for satellite CZ-6A DEB.

In-orbit conjunctions

A list of the most updated potential collisions computed for object CZ-6A DEB.

Target Orbit TCA Probability of collision Miss distance Type
COSMOS 886 DEB LEO 2024-12-16 12:33:03 0.0001197312 103.0 (m) DEBRIS
ARIANE 1 DEB SSO 2024-09-10 10:07:21 0.0002530021 218.0 (m) DEBRIS

Associated space launch

Chinese satellite reported for atmospheric/ocean/environmental/spatial parameter research purposes, details TBD.

CZ-6A DEB was lifted into orbit during the mission ‘Long March 6A | Yunhai 3’, on board a Long March 6A space rocket.

The launch took place on Nov. 11, 2022, 10:52 p.m. from Launch Complex 9A.

For more information about the launch, click the button.

Launch to space Long March 6A | Yunhai 3
Long March 6A | Yunhai 3

Agency: N/A

Status: Launch Successful

Launch date: Nov. 11, 2022, 10:52 p.m. UTC

Rocket: Long March 6A

Launch pad: Launch Complex 9A

Location: Taiyuan Satellite Launch Center, People's Republic of China

...

Latest news about this satellite

There are no fresh news available about this satellite. Check back as we update our databases every day.


Newsletter sign-up

Weekly statistics, charts and insights to help you stay on top of the space industry.